Regional Weather Roundup
Issued by NWS

Home | Current Version | Previous Version | Text Only | Print | Product List | Glossary On
Versions: 1 2 3 4 5 6 7 8 9 10 11 12 13 14 15 16 17 18 19 20 21 22 23 24 25 26 27 28 29 30 31 32 33 34 35 36 37 38 39 40 41 42 43 44 45 46 47 48 49 50
000
ASUS45 KREV 292110
RWRNV
NEVADA REGIONAL WEATHER ROUNDUP
NATIONAL WEATHER SERVICE RENO NV
200 PM PDT SUN MAR 29 2015

NOTE: "FAIR" INDICATES FEW OR NO CLOUDS BELOW 12,000 FEET WITH NO
SIGNIFICANT WEATHER AND/OR OBSTRUCTIONS TO VISIBILITY.

NVZ001-003-004-292200-
WESTERN NEVADA

CITY           SKY/WX    TMP DP  RH WIND       PRES   REMARKS
RENO           MOSUNNY   72  11   9 CALM      30.16F
CARSON CITY    FAIR      72  10   9 E13G18    30.18F
MINDEN         FAIR      70  14  11 W3        30.17
SLIDE MTN        N/A     52  25  35 S2          N/A
FALLON         MOSUNNY   69   7   9 NW6       30.18F
LOVELOCK       SUNNY     70   9   9 CALM      30.18F
HAWTHORNE      SUNNY     70   9   9 W3        30.16F
$$

NVZ002-CAZ072-073-292200-
NORTHERN AND CENTRAL SIERRA

CITY           SKY/WX    TMP DP  RH WIND       PRES   REMARKS
S. LAKE TAHOE  SUNNY     64  16  15 N5        30.23F
TRUCKEE        SUNNY     66  16  14 SE7       30.21F
SQUAW VLY 8000   N/A     54  21  28 S2          N/A
SUSANVILLE     SUNNY     66  19  16 E5        30.21
BLUE CANYON    SUNNY     66  29  24 W10       30.22F
MAMMOTH LAKES  FAIR      68  14  12 E9G17     30.25F
BRIDGEPORT     FAIR      70   6   8 VRB3      30.18F
$$

NVZ030-031-036-292200-
NORTHERN NEVADA

CITY           SKY/WX    TMP DP  RH WIND       PRES   REMARKS
ELKO           SUNNY     67   4   8 N7        30.23F
WINNEMUCCA     SUNNY     68   6   9 S6        30.21F
WENDOVER       SUNNY     59  18  20 E5        30.27F
$$

NVZ035-037-292200-
CENTRAL NEVADA

CITY           SKY/WX    TMP DP  RH WIND       PRES   REMARKS
ELY            MOSUNNY   71  14  11 N7        30.23F
EUREKA           N/A     68  10  10 CALM      30.21F
$$

NVZ013-014-292200-
SOUTH CENTRAL NEVADA

CITY           SKY/WX    TMP DP  RH WIND       PRES   REMARKS
TONOPAH        MOSUNNY   70  13  11 S9        30.20F
$$

NVZ017-020-022-292200-
SOUTHERN NEVADA

CITY           SKY/WX    TMP DP  RH WIND       PRES   REMARKS
LAS VEGAS      MOSUNNY   86  20   9 VRB5      30.01F
N. LAS VEGAS   SUNNY     83  14   7 VRB7      30.04F
NELLIS AFB     MOSUNNY   86  21   9 VRB1      30.02F
HENDERSON      SUNNY     84  25  11 VRB5      30.08F
MERCURY        SUNNY     82  13   7 VRB5      30.08F
$$



USA.gov is the U.S. government's official web portal to all federal, state and local government web resources and services.